Time,TemperatureF,DewpointF,PressureIn,WindDirection,WindDirectionDegrees,WindSpeedMPH,WindSpeedGustMPH,Humidity,HourlyPrecipIn,Conditions,Clouds,dailyrainin,SoftwareType,DateUTC
2013-03-26 00:00:00,55.4,39.6,30.04,NW,305,1.2,3.9,55,0.00,,---,0.00,VWS V14.01,2013-03-26 04:00:00,
2013-03-26 00:01:00,47.1,35.1,30.24,NNW,330,2.8,6.3,63,0.00,,---,0.00,VWS V14.01,2013-03-26 04:01:00,
2013-03-26 00:05:00,55.8,40.1,30.03,NW,311,1.9,4.4,56,0.00,,---,0.00,VWS V14.01,2013-03-26 04:05:00,
2013-03-26 00:10:00,55.7,40.2,30.04,North,359,3.1,5.6,56,0.00,,---,0.00,VWS V14.01,2013-03-26 04:10:00,
2013-03-26 00:15:00,55.2,39.7,30.04,NW,323,4.5,5.9,56,0.00,,---,0.00,VWS V14.01,2013-03-26 04:15:00,
2013-03-26 00:20:00,55.9,40.3,30.04,NW,319,4.8,7.0,56,0.00,,---,0.00,VWS V14.01,2013-03-26 04:20:00,
2013-03-26 00:25:00,56.1,40.4,30.04,NW,319,5.2,5.9,55,0.00,,---,0.00,VWS V14.01,2013-03-26 04:25:00,
2013-03-26 00:30:00,55.8,40.2,30.04,NW,322,2.6,6.9,56,0.00,,---,0.00,VWS V14.01,2013-03-26 04:30:00,
2013-03-26 00:35:00,55.3,40.0,30.04,NW,307,5.0,7.5,56,0.00,,---,0.00,VWS V14.01,2013-03-26 04:35:00,
2013-03-26 00:40:00,55.9,40.8,30.04,NW,307,5.0,6.5,57,0.00,,---,0.00,VWS V14.01,2013-03-26 04:40:00,
2013-03-26 00:45:00,55.3,40.3,30.04,WSW,249,3.4,8.4,57,0.00,,---,0.00,VWS V14.01,2013-03-26 04:45:00,
2013-03-26 00:50:00,55.1,40.5,30.04,NNW,339,2.4,5.0,58,0.00,,---,0.00,VWS V14.01,2013-03-26 04:50:00,
2013-03-26 00:55:00,55.6,41.5,30.05,West,271,8.0,8.0,59,0.00,,---,0.00,VWS V14.01,2013-03-26 04:55:00,
2013-03-26 01:00:00,55.2,41.0,30.04,West,278,2.6,8.3,59,0.00,,---,0.00,VWS V14.01,2013-03-26 05:00:00,
2013-03-26 01:05:00,55.3,41.2,30.05,NNW,330,1.9,3.4,59,0.00,,---,0.00,VWS V14.01,2013-03-26 05:05:00,
2013-03-26 01:10:00,55.4,41.2,30.05,WNW,285,3.8,5.5,59,0.00,,---,0.00,VWS V14.01,2013-03-26 05:10:00,
2013-03-26 01:15:00,55.2,41.0,30.05,WNW,285,6.3,7.7,59,0.00,,---,0.00,VWS V14.01,2013-03-26 05:15:00,
2013-03-26 01:20:00,55.6,41.3,30.05,WNW,290,2.8,4.3,58,0.00,,---,0.00,VWS V14.01,2013-03-26 05:20:00,
2013-03-26 01:25:00,56.1,41.4,30.05,WNW,287,7.6,7.6,58,0.00,,---,0.00,VWS V14.01,2013-03-26 05:25:00,
2013-03-26 01:30:00,55.7,40.9,30.05,WNW,301,4.1,5.5,57,0.00,,---,0.00,VWS V14.01,2013-03-26 05:30:00,
2013-03-26 01:35:00,56.4,41.6,30.05,NW,311,5.5,5.5,58,0.00,,---,0.00,VWS V14.01,2013-03-26 05:35:00,
2013-03-26 01:40:00,56.3,41.1,30.05,WNW,292,3.7,6.3,57,0.00,,---,0.00,VWS V14.01,2013-03-26 05:40:00,
2013-03-26 01:45:00,56.5,41.0,30.05,NNW,329,2.7,6.5,56,0.00,,---,0.00,VWS V14.01,2013-03-26 05:45:00,
2013-03-26 01:50:00,56.2,40.5,30.05,NW,315,3.2,3.8,56,0.00,,---,0.00,VWS V14.01,2013-03-26 05:50:00,
2013-03-26 01:55:00,56.3,40.1,30.05,NW,323,4.0,7.0,54,0.00,,---,0.00,VWS V14.01,2013-03-26 05:55:00,
2013-03-26 02:00:00,56.2,39.7,30.05,NW,315,5.5,7.0,54,0.00,,---,0.00,VWS V14.01,2013-03-26 06:00:00,
2013-03-26 02:05:00,56.2,39.4,30.05,NNW,328,6.4,8.6,53,0.00,,---,0.00,VWS V14.01,2013-03-26 06:05:00,
2013-03-26 02:10:00,55.6,38.4,30.05,NNW,347,3.5,5.1,52,0.00,,---,0.00,VWS V14.01,2013-03-26 06:10:00,
2013-03-26 02:15:00,56.1,37.5,30.06,WNW,297,1.4,2.9,50,0.00,,---,0.00,VWS V14.01,2013-03-26 06:15:00,
2013-03-26 02:20:00,56.0,35.6,30.06,NW,325,8.3,10.1,46,0.00,,---,0.00,VWS V14.01,2013-03-26 06:20:00,
2013-03-26 02:25:00,55.9,33.3,30.06,North,0,5.5,6.5,42,0.00,,---,0.00,VWS V14.01,2013-03-26 06:25:00,
2013-03-26 02:30:00,56.1,31.5,30.06,NW,318,3.4,7.3,39,0.00,,---,0.00,VWS V14.01,2013-03-26 06:30:00,
2013-03-26 02:35:00,56.0,31.1,30.05,NNW,347,9.6,12.2,38,0.00,,---,0.00,VWS V14.01,2013-03-26 06:35:00,
2013-03-26 02:40:00,55.7,30.2,30.06,NW,315,4.1,8.6,38,0.00,,---,0.00,VWS V14.01,2013-03-26 06:40:00,
2013-03-26 02:45:00,55.9,29.6,30.06,NW,315,4.0,9.7,36,0.00,,---,0.00,VWS V14.01,2013-03-26 06:45:00,
2013-03-26 02:50:00,55.2,29.9,30.06,NNE,27,5.5,7.9,38,0.00,,---,0.00,VWS V14.01,2013-03-26 06:50:00,
2013-03-26 02:55:00,55.7,29.7,30.06,North,3,6.0,7.7,37,0.00,,---,0.00,VWS V14.01,2013-03-26 06:55:00,
2013-03-26 03:00:00,55.7,29.7,30.06,NNW,336,7.6,7.6,37,0.00,,---,0.00,VWS V14.01,2013-03-26 07:00:00,
2013-03-26 03:05:00,55.6,29.6,30.06,NW,322,5.6,7.5,37,0.00,,---,0.00,VWS V14.01,2013-03-26 07:05:00,
2013-03-26 03:10:00,55.3,29.3,30.06,NNW,338,5.7,10.4,37,0.00,,---,0.00,VWS V14.01,2013-03-26 07:10:00,
2013-03-26 03:15:00,54.8,29.6,30.05,North,350,5.4,6.8,38,0.00,,---,0.00,VWS V14.01,2013-03-26 07:15:00,
2013-03-26 03:20:00,55.0,29.9,30.05,NNW,340,4.5,7.3,38,0.00,,---,0.00,VWS V14.01,2013-03-26 07:20:00,
2013-03-26 03:25:00,55.0,29.8,30.05,NNW,329,6.9,13.5,38,0.00,,---,0.00,VWS V14.01,2013-03-26 07:25:00,
2013-03-26 03:30:00,54.6,29.6,30.06,NW,309,9.0,11.2,38,0.00,,---,0.00,VWS V14.01,2013-03-26 07:30:00,
2013-03-26 03:35:00,54.6,29.9,30.05,NNW,330,7.8,9.1,39,0.00,,---,0.00,VWS V14.01,2013-03-26 07:35:00,
2013-03-26 03:40:00,53.9,29.4,30.05,NW,304,4.3,10.9,39,0.00,,---,0.00,VWS V14.01,2013-03-26 07:40:00,
2013-03-26 03:45:00,53.9,29.2,30.05,NNW,346,6.7,13.3,38,0.00,,---,0.00,VWS V14.01,2013-03-26 07:45:00,
2013-03-26 03:50:00,53.5,28.6,30.05,NNW,332,9.8,12.9,38,0.00,,---,0.00,VWS V14.01,2013-03-26 07:50:00,
2013-03-26 03:55:00,53.9,28.8,30.05,NNW,330,12.1,12.1,38,0.00,,---,0.00,VWS V14.01,2013-03-26 07:55:00,
2013-03-26 04:00:00,53.8,28.8,30.06,NNW,330,9.3,9.4,38,0.00,,---,0.00,VWS V14.01,2013-03-26 08:00:00,
2013-03-26 04:05:00,53.5,28.6,30.06,NNW,345,6.3,13.7,38,0.00,,---,0.00,VWS V14.01,2013-03-26 08:05:00,
2013-03-26 04:10:00,53.2,28.8,30.06,North,1,6.8,8.5,39,0.00,,---,0.00,VWS V14.01,2013-03-26 08:10:00,
2013-03-26 04:15:00,52.3,27.9,30.06,North,359,7.6,8.0,39,0.00,,---,0.00,VWS V14.01,2013-03-26 08:15:00,
2013-03-26 04:20:00,52.0,27.6,30.07,NNW,336,5.3,6.8,39,0.00,,---,0.00,VWS V14.01,2013-03-26 08:20:00,
2013-03-26 04:25:00,52.1,26.8,30.07,NW,326,9.2,11.1,37,0.00,,---,0.00,VWS V14.01,2013-03-26 08:25:00,
2013-03-26 04:30:00,51.7,26.2,30.07,NNW,342,6.1,12.3,37,0.00,,---,0.00,VWS V14.01,2013-03-26 08:30:00,
2013-03-26 04:35:00,51.6,25.7,30.08,NNW,340,7.8,9.6,36,0.00,,---,0.00,VWS V14.01,2013-03-26 08:35:00,
2013-03-26 04:40:00,50.9,25.2,30.08,NNW,343,5.3,11.8,36,0.00,,---,0.00,VWS V14.01,2013-03-26 08:40:00,
2013-03-26 04:45:00,51.0,25.6,30.08,NNW,336,7.8,8.5,37,0.00,,---,0.00,VWS V14.01,2013-03-26 08:45:00,
2013-03-26 04:50:00,50.0,25.0,30.08,NNW,329,5.7,8.1,37,0.00,,---,0.00,VWS V14.01,2013-03-26 08:50:00,
2013-03-26 04:55:00,50.6,25.6,30.08,NNW,328,7.1,9.7,38,0.00,,---,0.00,VWS V14.01,2013-03-26 08:55:00,
2013-03-26 05:00:00,50.1,24.6,30.08,NNW,330,9.1,13.7,37,0.00,,---,0.00,VWS V14.01,2013-03-26 09:00:00,
2013-03-26 05:05:00,50.1,24.8,30.08,NNW,345,5.7,10.2,37,0.00,,---,0.00,VWS V14.01,2013-03-26 09:05:00,
2013-03-26 05:10:00,49.9,24.8,30.08,NW,321,9.4,10.1,37,0.00,,---,0.00,VWS V14.01,2013-03-26 09:10:00,
2013-03-26 05:15:00,50.0,25.4,30.07,North,3,5.7,11.0,38,0.00,,---,0.00,VWS V14.01,2013-03-26 09:15:00,
2013-03-26 05:20:00,49.4,25.2,30.08,NW,322,8.3,8.4,39,0.00,,---,0.00,VWS V14.01,2013-03-26 09:20:00,
2013-03-26 05:25:00,49.0,25.4,30.08,NNW,335,5.0,7.5,39,0.00,,---,0.00,VWS V14.01,2013-03-26 09:25:00,
2013-03-26 05:30:00,48.9,25.1,30.08,NW,319,5.2,7.2,39,0.00,,---,0.00,VWS V14.01,2013-03-26 09:30:00,
2013-03-26 05:35:00,48.7,24.8,30.08,North,349,8.1,8.3,39,0.00,,---,0.00,VWS V14.01,2013-03-26 09:35:00,
2013-03-26 05:40:00,49.3,25.8,30.08,NNW,343,5.5,6.3,40,0.00,,---,0.00,VWS V14.01,2013-03-26 09:40:00,
2013-03-26 05:45:00,48.8,25.7,30.08,NNW,345,8.9,10.7,40,0.00,,---,0.00,VWS V14.01,2013-03-26 09:45:00,
2013-03-26 05:50:00,48.7,26.0,30.08,NNW,340,4.3,7.5,41,0.00,,---,0.00,VWS V14.01,2013-03-26 09:50:00,
2013-03-26 05:55:00,48.1,25.5,30.09,NW,326,4.7,7.5,41,0.00,,---,0.00,VWS V14.01,2013-03-26 09:55:00,
2013-03-26 06:00:00,48.3,25.9,30.09,NNW,330,5.9,7.5,41,0.00,,---,0.00,VWS V14.01,2013-03-26 10:00:00,
2013-03-26 06:05:00,48.6,26.6,30.09,NNW,339,3.4,3.6,42,0.00,,---,0.00,VWS V14.01,2013-03-26 10:05:00,
2013-03-26 06:10:00,48.0,26.4,30.09,NNW,340,7.3,7.6,43,0.00,,---,0.00,VWS V14.01,2013-03-26 10:10:00,
2013-03-26 06:15:00,47.8,26.4,30.09,NW,316,4.9,6.8,43,0.00,,---,0.00,VWS V14.01,2013-03-26 10:15:00,
2013-03-26 06:20:00,48.2,27.0,30.10,NNW,338,7.0,10.0,43,0.00,,---,0.00,VWS V14.01,2013-03-26 10:20:00,
2013-03-26 06:25:00,48.0,27.0,30.10,NNW,338,4.3,5.1,44,0.00,,---,0.00,VWS V14.01,2013-03-26 10:25:00,
2013-03-26 06:30:00,47.2,26.4,30.10,NW,312,7.4,8.0,44,0.00,,---,0.00,VWS V14.01,2013-03-26 10:30:00,
2013-03-26 06:35:00,47.7,27.1,30.10,NNW,332,4.1,6.9,44,0.00,,---,0.00,VWS V14.01,2013-03-26 10:35:00,
2013-03-26 06:40:00,47.2,27.1,30.10,North,359,4.5,6.0,45,0.00,,---,0.00,VWS V14.01,2013-03-26 10:40:00,
2013-03-26 06:45:00,47.5,27.2,30.10,NNW,332,5.8,8.8,45,0.00,,---,0.00,VWS V14.01,2013-03-26 10:45:00,
2013-03-26 06:50:00,46.7,26.6,30.10,NW,322,11.6,11.6,45,0.00,,---,0.00,VWS V14.01,2013-03-26 10:50:00,
2013-03-26 06:55:00,46.8,26.9,30.10,North,357,4.7,8.1,46,0.00,,---,0.00,VWS V14.01,2013-03-26 10:55:00,
2013-03-26 07:00:00,46.9,27.0,30.10,NNW,336,5.3,7.8,46,0.00,,---,0.00,VWS V14.01,2013-03-26 11:00:00,
2013-03-26 07:05:00,47.0,27.6,30.11,NNW,342,5.9,6.8,46,0.00,,---,0.00,VWS V14.01,2013-03-26 11:05:00,
2013-03-26 07:10:00,47.1,27.5,30.11,NNW,346,8.6,11.9,46,0.00,,---,0.00,VWS V14.01,2013-03-26 11:10:00,
2013-03-26 07:15:00,46.9,27.3,30.11,NW,311,8.1,11.1,46,0.00,,---,0.00,VWS V14.01,2013-03-26 11:15:00,
2013-03-26 07:20:00,47.0,27.8,30.11,NNW,328,8.1,10.9,47,0.00,,---,0.00,VWS V14.01,2013-03-26 11:20:00,
2013-03-26 07:25:00,47.0,28.0,30.11,NNW,333,12.1,13.6,47,0.00,,---,0.00,VWS V14.01,2013-03-26 11:25:00,
2013-03-26 07:30:00,46.8,28.1,30.11,NW,321,9.0,9.3,48,0.00,,---,0.00,VWS V14.01,2013-03-26 11:30:00,
2013-03-26 07:35:00,46.8,28.1,30.11,NNW,329,6.5,9.6,48,0.00,,---,0.00,VWS V14.01,2013-03-26 11:35:00,
2013-03-26 07:40:00,46.8,28.3,30.11,North,356,4.5,9.9,48,0.00,,---,0.00,VWS V14.01,2013-03-26 11:40:00,
2013-03-26 07:45:00,46.8,28.1,30.12,North,359,8.5,11.1,48,0.00,,---,0.00,VWS V14.01,2013-03-26 11:45:00,
2013-03-26 07:50:00,46.7,28.3,30.12,NNW,340,6.9,10.1,48,0.00,,---,0.00,VWS V14.01,2013-03-26 11:50:00,
2013-03-26 07:55:00,46.2,27.7,30.12,NNE,22,12.3,16.4,48,0.00,,---,0.00,VWS V14.01,2013-03-26 11:55:00,
2013-03-26 08:00:00,46.8,28.2,30.12,North,352,8.6,12.4,48,0.00,,---,0.00,VWS V14.01,2013-03-26 12:00:00,
2013-03-26 08:05:00,46.7,28.6,30.13,NW,316,3.9,7.8,49,0.00,,---,0.00,VWS V14.01,2013-03-26 12:05:00,
2013-03-26 08:10:00,46.1,28.1,30.13,NNW,332,12.3,12.3,49,0.00,,---,0.00,VWS V14.01,2013-03-26 12:10:00,
2013-03-26 08:15:00,46.7,28.7,30.13,North,359,8.1,9.8,49,0.00,,---,0.00,VWS V14.01,2013-03-26 12:15:00,
2013-03-26 08:20:00,46.9,28.9,30.13,NNW,330,7.2,8.0,49,0.00,,---,0.00,VWS V14.01,2013-03-26 12:20:00,
2013-03-26 08:25:00,46.7,29.1,30.13,NNW,330,11.2,12.9,50,0.00,,---,0.00,VWS V14.01,2013-03-26 12:25:00,
2013-03-26 08:30:00,45.9,28.5,30.14,NNW,336,5.5,8.1,50,0.00,,---,0.00,VWS V14.01,2013-03-26 12:30:00,
2013-03-26 08:35:00,46.8,29.2,30.14,NW,307,8.4,9.1,50,0.00,,---,0.00,VWS V14.01,2013-03-26 12:35:00,
2013-03-26 08:40:00,47.0,29.5,30.14,North,353,6.2,12.6,50,0.00,,---,0.00,VWS V14.01,2013-03-26 12:40:00,
2013-03-26 08:45:00,46.8,29.1,30.15,North,11,8.7,14.5,50,0.00,,---,0.00,VWS V14.01,2013-03-26 12:45:00,
2013-03-26 08:50:00,46.8,29.3,30.15,NW,326,15.0,19.1,50,0.00,,---,0.00,VWS V14.01,2013-03-26 12:50:00,
2013-03-26 08:55:00,46.4,29.3,30.15,NW,312,4.6,6.0,51,0.00,,---,0.00,VWS V14.01,2013-03-26 12:55:00,
2013-03-26 09:00:00,46.8,29.5,30.15,NNW,347,4.7,9.9,51,0.00,,---,0.00,VWS V14.01,2013-03-26 13:00:00,
2013-03-26 09:05:00,46.7,29.4,30.15,NNW,339,15.8,15.8,51,0.00,,---,0.00,VWS V14.01,2013-03-26 13:05:00,
2013-03-26 09:10:00,46.8,29.7,30.16,NNW,342,15.8,20.9,51,0.00,,---,0.00,VWS V14.01,2013-03-26 13:10:00,
2013-03-26 09:15:00,46.9,29.9,30.16,NNW,330,11.0,15.0,51,0.00,,---,0.00,VWS V14.01,2013-03-26 13:15:00,
2013-03-26 09:20:00,47.2,29.8,30.15,North,356,11.7,14.4,51,0.00,,---,0.00,VWS V14.01,2013-03-26 13:20:00,
2013-03-26 09:25:00,47.1,29.7,30.16,North,3,7.7,9.5,50,0.00,,---,0.00,VWS V14.01,2013-03-26 13:25:00,
2013-03-26 09:30:00,46.7,28.6,30.16,NW,326,10.2,10.4,49,0.00,,---,0.00,VWS V14.01,2013-03-26 13:30:00,
2013-03-26 09:35:00,47.7,29.2,30.16,NW,319,4.3,12.2,48,0.00,,---,0.00,VWS V14.01,2013-03-26 13:35:00,
2013-03-26 09:40:00,48.0,29.2,30.16,NNW,335,4.6,7.1,48,0.00,,---,0.00,VWS V14.01,2013-03-26 13:40:00,
2013-03-26 09:45:00,48.1,28.9,30.16,NNW,346,8.2,10.3,47,0.00,,---,0.00,VWS V14.01,2013-03-26 13:45:00,
2013-03-26 09:50:00,47.6,28.2,30.16,WNW,295,2.4,7.1,47,0.00,,---,0.00,VWS V14.01,2013-03-26 13:50:00,
2013-03-26 09:55:00,47.8,28.3,30.16,NW,316,7.2,10.5,46,0.00,,---,0.00,VWS V14.01,2013-03-26 13:55:00,
2013-03-26 10:00:00,47.8,28.3,30.16,NW,314,5.7,10.5,46,0.00,,---,0.00,VWS V14.01,2013-03-26 14:00:00,
2013-03-26 10:05:00,48.1,28.7,30.16,NW,314,5.2,9.1,47,0.00,,---,0.00,VWS V14.01,2013-03-26 14:05:00,
2013-03-26 10:10:00,48.4,29.4,30.16,North,359,6.5,7.1,48,0.00,,---,0.00,VWS V14.01,2013-03-26 14:10:00,
2013-03-26 10:15:00,48.8,29.4,30.16,NW,314,10.4,11.9,47,0.00,,---,0.00,VWS V14.01,2013-03-26 14:15:00,
2013-03-26 10:20:00,49.0,27.8,30.16,NNW,332,6.5,12.6,44,0.00,,---,0.00,VWS V14.01,2013-03-26 14:20:00,
2013-03-26 10:25:00,49.7,28.8,30.16,NW,315,5.5,5.7,44,0.00,,---,0.00,VWS V14.01,2013-03-26 14:25:00,
2013-03-26 10:30:00,49.9,28.9,30.16,WNW,301,4.7,8.6,44,0.00,,---,0.00,VWS V14.01,2013-03-26 14:30:00,
2013-03-26 10:35:00,49.9,28.9,30.16,NW,316,3.6,10.1,44,0.00,,---,0.00,VWS V14.01,2013-03-26 14:35:00,
2013-03-26 10:40:00,49.5,28.8,30.16,WNW,292,9.2,11.5,44,0.00,,---,0.00,VWS V14.01,2013-03-26 14:40:00,
2013-03-26 10:45:00,50.4,29.0,30.16,WNW,295,4.7,9.1,44,0.00,,---,0.00,VWS V14.01,2013-03-26 14:45:00,
2013-03-26 10:50:00,50.2,29.2,30.16,NW,315,10.6,12.6,44,0.00,,---,0.00,VWS V14.01,2013-03-26 14:50:00,
2013-03-26 10:55:00,49.9,29.2,30.16,West,276,3.5,8.8,45,0.00,,---,0.00,VWS V14.01,2013-03-26 14:55:00,
2013-03-26 11:00:00,50.7,29.5,30.16,West,269,6.0,9.9,44,0.00,,---,0.00,VWS V14.01,2013-03-26 15:00:00,
2013-03-26 11:05:00,51.3,29.2,30.15,NW,308,10.3,13.2,42,0.00,,---,0.00,VWS V14.01,2013-03-26 15:05:00,
2013-03-26 11:10:00,51.7,28.2,30.15,NW,312,6.2,11.7,40,0.00,,---,0.00,VWS V14.01,2013-03-26 15:10:00,
2013-03-26 11:15:00,51.1,28.0,30.16,West,262,4.2,7.3,41,0.00,,---,0.00,VWS V14.01,2013-03-26 15:15:00,
2013-03-26 11:20:00,51.5,28.8,30.16,WSW,256,7.8,13.0,41,0.00,,---,0.00,VWS V14.01,2013-03-26 15:20:00,
2013-03-26 11:25:00,51.2,29.1,30.16,WNW,301,8.8,8.8,42,0.00,,---,0.00,VWS V14.01,2013-03-26 15:25:00,
2013-03-26 11:30:00,52.2,29.6,30.16,West,264,5.6,8.7,42,0.00,,---,0.00,VWS V14.01,2013-03-26 15:30:00,
2013-03-26 11:35:00,52.1,28.8,30.16,WNW,290,2.4,4.7,40,0.00,,---,0.00,VWS V14.01,2013-03-26 15:35:00,
2013-03-26 11:40:00,53.3,28.6,30.16,SW,229,16.8,17.3,38,0.00,,---,0.00,VWS V14.01,2013-03-26 15:40:00,
2013-03-26 11:45:00,52.4,27.3,30.16,SW,232,11.6,19.5,38,0.00,,---,0.00,VWS V14.01,2013-03-26 15:45:00,
2013-03-26 11:50:00,53.1,26.7,30.16,WNW,291,8.0,9.6,36,0.00,,---,0.00,VWS V14.01,2013-03-26 15:50:00,
2013-03-26 11:55:00,52.5,27.6,30.16,WNW,285,4.5,15.7,38,0.00,,---,0.00,VWS V14.01,2013-03-26 15:55:00,
2013-03-26 12:00:00,52.3,26.4,30.16,NNW,347,3.9,10.2,36,0.00,,---,0.00,VWS V14.01,2013-03-26 16:00:00,
2013-03-26 12:05:00,52.7,26.1,30.16,West,260,7.8,9.5,35,0.00,,---,0.00,VWS V14.01,2013-03-26 16:05:00,
2013-03-26 12:10:00,53.3,25.2,30.16,West,276,9.6,15.0,33,0.00,,---,0.00,VWS V14.01,2013-03-26 16:10:00,
2013-03-26 12:15:00,53.5,27.2,30.16,WNW,302,5.3,5.3,36,0.00,,---,0.00,VWS V14.01,2013-03-26 16:15:00,
2013-03-26 12:20:00,53.5,26.1,30.15,NW,312,5.9,6.9,34,0.00,,---,0.00,VWS V14.01,2013-03-26 16:20:00,
2013-03-26 12:25:00,53.4,26.5,30.15,NNW,342,11.9,16.1,35,0.00,,---,0.00,VWS V14.01,2013-03-26 16:25:00,
2013-03-26 12:30:00,54.3,26.9,30.15,NNW,329,5.5,11.8,34,0.00,,---,0.00,VWS V14.01,2013-03-26 16:30:00,
2013-03-26 12:35:00,54.5,26.3,30.16,WNW,302,7.6,11.9,33,0.00,,---,0.00,VWS V14.01,2013-03-26 16:35:00,
2013-03-26 12:40:00,53.5,25.5,30.16,NW,315,7.5,9.4,34,0.00,,---,0.00,VWS V14.01,2013-03-26 16:40:00,
2013-03-26 12:45:00,54.4,27.5,30.15,North,349,0.0,2.3,35,0.00,,---,0.00,VWS V14.01,2013-03-26 16:45:00,
2013-03-26 12:50:00,54.3,26.4,30.15,West,269,8.3,12.1,34,0.00,,---,0.00,VWS V14.01,2013-03-26 16:50:00,
2013-03-26 12:55:00,55.1,26.7,30.15,NNW,333,7.3,13.2,33,0.00,,---,0.00,VWS V14.01,2013-03-26 16:55:00,
2013-03-26 13:00:00,55.4,26.9,30.15,West,260,6.1,9.7,33,0.00,,---,0.00,VWS V14.01,2013-03-26 17:00:00,
2013-03-26 13:05:00,56.3,27.7,30.14,NW,325,8.5,14.2,33,0.00,,---,0.00,VWS V14.01,2013-03-26 17:05:00,
2013-03-26 13:10:00,56.3,26.8,30.15,NW,305,7.6,9.1,32,0.00,,---,0.00,VWS V14.01,2013-03-26 17:10:00,
2013-03-26 13:15:00,56.6,25.9,30.15,WNW,300,3.7,6.2,30,0.00,,---,0.00,VWS V14.01,2013-03-26 17:15:00,
2013-03-26 13:20:00,56.9,26.4,30.15,NNW,328,4.6,5.8,31,0.00,,---,0.00,VWS V14.01,2013-03-26 17:20:00,
2013-03-26 13:25:00,55.7,23.5,30.14,West,269,8.5,8.9,28,0.00,,---,0.00,VWS V14.01,2013-03-26 17:25:00,
2013-03-26 13:30:00,56.5,24.4,30.14,NW,323,11.9,11.9,29,0.00,,---,0.00,VWS V14.01,2013-03-26 17:30:00,
2013-03-26 13:35:00,57.0,22.8,30.14,WSW,249,8.9,19.0,26,0.00,,---,0.00,VWS V14.01,2013-03-26 17:35:00,
2013-03-26 13:40:00,56.4,21.6,30.15,WSW,252,9.4,10.3,26,0.00,,---,0.00,VWS V14.01,2013-03-26 17:40:00,
2013-03-26 13:45:00,56.4,21.9,30.14,NW,307,5.1,6.0,26,0.00,,---,0.00,VWS V14.01,2013-03-26 17:45:00,
2013-03-26 13:50:00,56.8,23.3,30.13,NW,318,6.8,12.6,27,0.00,,---,0.00,VWS V14.01,2013-03-26 17:50:00,
2013-03-26 13:55:00,57.1,22.3,30.13,WNW,298,6.3,9.8,26,0.00,,---,0.00,VWS V14.01,2013-03-26 17:55:00,
2013-03-26 14:00:00,56.5,22.9,30.14,West,271,1.7,3.5,27,0.00,,---,0.00,VWS V14.01,2013-03-26 18:00:00,
2013-03-26 14:05:00,57.8,21.9,30.13,WSW,255,6.8,9.6,25,0.00,,---,0.00,VWS V14.01,2013-03-26 18:05:00,
2013-03-26 14:10:00,57.6,22.1,30.14,NNW,345,5.3,7.7,25,0.00,,---,0.00,VWS V14.01,2013-03-26 18:10:00,
2013-03-26 14:15:00,57.1,21.6,30.13,WNW,288,14.0,14.0,25,0.00,,---,0.00,VWS V14.01,2013-03-26 18:15:00,
2013-03-26 14:20:00,57.4,23.3,30.13,West,260,17.4,17.7,26,0.00,,---,0.00,VWS V14.01,2013-03-26 18:20:00,
2013-03-26 14:25:00,58.2,23.6,30.13,SW,236,9.8,10.4,26,0.00,,---,0.00,VWS V14.01,2013-03-26 18:25:00,
2013-03-26 14:30:00,58.6,21.6,30.12,SW,236,10.6,11.8,24,0.00,,---,0.00,VWS V14.01,2013-03-26 18:30:00,
2013-03-26 14:35:00,58.6,22.7,30.12,WNW,292,6.5,11.3,25,0.00,,---,0.00,VWS V14.01,2013-03-26 18:35:00,
2013-03-26 14:40:00,59.2,22.5,30.12,WNW,300,12.0,13.5,24,0.00,,---,0.00,VWS V14.01,2013-03-26 18:40:00,
2013-03-26 14:45:00,59.1,22.4,30.11,WNW,284,5.5,9.1,24,0.00,,---,0.00,VWS V14.01,2013-03-26 18:45:00,
2013-03-26 14:50:00,59.4,19.4,30.12,WNW,297,9.8,12.7,21,0.00,,---,0.00,VWS V14.01,2013-03-26 18:50:00,
2013-03-26 14:55:00,58.8,18.6,30.12,West,269,12.8,15.1,21,0.00,,---,0.00,VWS V14.01,2013-03-26 18:55:00,
2013-03-26 15:00:00,58.4,18.8,30.11,NW,315,8.1,11.6,21,0.00,,---,0.00,VWS V14.01,2013-03-26 19:00:00,
2013-03-26 15:05:00,59.0,19.7,30.11,WNW,285,5.7,9.1,22,0.00,,---,0.00,VWS V14.01,2013-03-26 19:05:00,
2013-03-26 15:10:00,59.3,19.3,30.11,WSW,257,4.3,5.7,21,0.00,,---,0.00,VWS V14.01,2013-03-26 19:10:00,
2013-03-26 15:15:00,59.0,16.5,30.11,WNW,283,4.8,6.0,19,0.00,,---,0.00,VWS V14.01,2013-03-26 19:15:00,
2013-03-26 15:19:00,59.1,16.9,30.11,North,359,6.5,18.0,19,0.00,,---,0.00,VWS V14.01,2013-03-26 19:19:00,
2013-03-26 15:24:00,58.3,18.6,30.11,SSW,201,2.1,8.1,21,0.00,,---,0.00,VWS V14.01,2013-03-26 19:24:00,
2013-03-26 15:29:00,59.2,20.9,30.11,West,281,7.3,16.7,22,0.00,,---,0.00,VWS V14.01,2013-03-26 19:29:00,
2013-03-26 15:34:00,59.4,18.9,30.11,West,262,13.9,19.8,20,0.00,,---,0.00,VWS V14.01,2013-03-26 19:34:00,
2013-03-26 15:39:00,59.2,19.1,30.11,WNW,288,12.3,12.3,21,0.00,,---,0.00,VWS V14.01,2013-03-26 19:39:00,
2013-03-26 15:44:00,58.5,19.0,30.10,West,269,11.8,13.7,21,0.00,,---,0.00,VWS V14.01,2013-03-26 19:44:00,
2013-03-26 15:49:00,59.6,18.0,30.10,West,269,10.6,11.7,20,0.00,,---,0.00,VWS V14.01,2013-03-26 19:49:00,
2013-03-26 15:54:00,60.0,19.0,30.10,WSW,250,10.4,17.6,20,0.00,,---,0.00,VWS V14.01,2013-03-26 19:54:00,
2013-03-26 15:59:00,59.9,21.5,30.10,SW,233,8.6,13.0,22,0.00,,---,0.00,VWS V14.01,2013-03-26 19:59:00,
2013-03-26 16:04:00,59.4,18.7,30.10,WNW,297,7.5,8.0,20,0.00,,---,0.00,VWS V14.01,2013-03-26 20:04:00,
2013-03-26 16:09:00,59.4,18.5,30.10,WNW,290,10.6,10.6,20,0.00,,---,0.00,VWS V14.01,2013-03-26 20:09:00,
2013-03-26 16:14:00,59.4,20.4,30.10,West,281,6.5,6.5,22,0.00,,---,0.00,VWS V14.01,2013-03-26 20:14:00,
2013-03-26 16:19:00,59.2,19.0,30.10,WNW,284,12.5,12.5,21,0.00,,---,0.00,VWS V14.01,2013-03-26 20:19:00,
2013-03-26 16:24:00,59.5,21.3,30.10,West,281,10.8,12.1,23,0.00,,---,0.00,VWS V14.01,2013-03-26 20:24:00,
2013-03-26 16:29:00,58.6,20.7,30.11,West,271,9.1,10.6,23,0.00,,---,0.00,VWS V14.01,2013-03-26 20:29:00,
2013-03-26 16:34:00,58.4,21.6,30.10,WNW,297,5.2,16.6,24,0.00,,---,0.00,VWS V14.01,2013-03-26 20:34:00,
2013-03-26 16:39:00,59.7,20.9,30.10,SW,226,16.7,16.7,22,0.00,,---,0.00,VWS V14.01,2013-03-26 20:39:00,
2013-03-26 16:44:00,59.4,21.4,30.10,West,263,14.4,24.5,23,0.00,,---,0.00,VWS V14.01,2013-03-26 20:44:00,
2013-03-26 16:49:00,59.4,21.6,30.11,WSW,248,12.2,20.9,23,0.00,,---,0.00,VWS V14.01,2013-03-26 20:49:00,
2013-03-26 16:54:00,59.5,23.2,30.10,WSW,253,7.6,9.8,24,0.00,,---,0.00,VWS V14.01,2013-03-26 20:54:00,
2013-03-26 16:59:00,58.7,22.7,30.10,SSW,210,5.6,10.9,25,0.00,,---,0.00,VWS V14.01,2013-03-26 20:59:00,
2013-03-26 17:04:00,58.7,22.0,30.10,NW,314,5.1,14.2,24,0.00,,---,0.00,VWS V14.01,2013-03-26 21:04:00,
2013-03-26 17:09:00,59.2,23.4,30.10,West,281,11.7,15.4,25,0.00,,---,0.00,VWS V14.01,2013-03-26 21:09:00,
2013-03-26 17:14:00,58.9,23.4,30.11,WNW,284,7.1,20.7,25,0.00,,---,0.00,VWS V14.01,2013-03-26 21:14:00,
2013-03-26 17:19:00,59.2,24.9,30.11,WSW,252,13.4,21.7,27,0.00,,---,0.00,VWS V14.01,2013-03-26 21:19:00,
2013-03-26 17:24:00,58.8,25.4,30.11,WNW,292,6.9,13.4,28,0.00,,---,0.00,VWS V14.01,2013-03-26 21:24:00,
2013-03-26 17:29:00,58.8,24.8,30.11,West,276,12.7,18.0,27,0.00,,---,0.00,VWS V14.01,2013-03-26 21:29:00,
2013-03-26 17:34:00,58.4,25.4,30.11,West,264,9.3,14.1,28,0.00,,---,0.00,VWS V14.01,2013-03-26 21:34:00,
2013-03-26 17:39:00,58.4,26.6,30.11,NW,307,5.2,13.5,29,0.00,,---,0.00,VWS V14.01,2013-03-26 21:39:00,
2013-03-26 17:44:00,58.3,26.5,30.11,WNW,287,9.6,12.6,29,0.00,,---,0.00,VWS V14.01,2013-03-26 21:44:00,
2013-03-26 17:49:00,58.1,25.3,30.11,WNW,287,15.2,19.6,28,0.00,,---,0.00,VWS V14.01,2013-03-26 21:49:00,
2013-03-26 17:54:00,57.8,26.2,30.12,West,271,11.3,12.4,30,0.00,,---,0.00,VWS V14.01,2013-03-26 21:54:00,
2013-03-26 17:59:00,58.1,27.3,30.12,North,354,6.1,15.4,31,0.00,,---,0.00,VWS V14.01,2013-03-26 21:59:00,
2013-03-26 18:04:00,57.7,27.3,30.12,WSW,257,8.6,11.0,31,0.00,,---,0.00,VWS V14.01,2013-03-26 22:04:00,
2013-03-26 18:09:00,58.3,27.9,30.12,WNW,301,9.1,10.2,31,0.00,,---,0.00,VWS V14.01,2013-03-26 22:09:00,
2013-03-26 18:14:00,57.8,28.0,30.12,WNW,288,3.4,11.2,32,0.00,,---,0.00,VWS V14.01,2013-03-26 22:14:00,
2013-03-26 18:19:00,57.7,28.1,30.12,West,277,8.9,14.4,32,0.00,,---,0.00,VWS V14.01,2013-03-26 22:19:00,
2013-03-26 18:24:00,57.0,28.2,30.12,WNW,285,7.5,12.8,33,0.00,,---,0.00,VWS V14.01,2013-03-26 22:24:00,
2013-03-26 18:29:00,57.0,28.6,30.12,SSW,207,10.6,12.0,34,0.00,,---,0.00,VWS V14.01,2013-03-26 22:29:00,
2013-03-26 18:34:00,57.3,29.4,30.12,NW,321,7.7,11.6,34,0.00,,---,0.00,VWS V14.01,2013-03-26 22:34:00,
2013-03-26 18:39:00,57.2,29.2,30.12,West,274,2.0,14.4,34,0.00,,---,0.00,VWS V14.01,2013-03-26 22:39:00,
2013-03-26 18:44:00,56.5,28.5,30.12,West,267,8.0,14.1,34,0.00,,---,0.00,VWS V14.01,2013-03-26 22:44:00,
2013-03-26 18:49:00,56.6,29.4,30.13,WSW,243,15.7,18.5,35,0.00,,---,0.00,VWS V14.01,2013-03-26 22:49:00,
2013-03-26 18:54:00,56.3,30.3,30.13,WNW,283,8.3,8.6,37,0.00,,---,0.00,VWS V14.01,2013-03-26 22:54:00,
2013-03-26 18:59:00,55.5,29.5,30.13,WNW,302,9.4,14.5,37,0.00,,---,0.00,VWS V14.01,2013-03-26 22:59:00,
2013-03-26 19:04:00,55.8,29.7,30.13,NW,308,6.5,9.2,37,0.00,,---,0.00,VWS V14.01,2013-03-26 23:04:00,
2013-03-26 19:09:00,55.3,29.5,30.13,WNW,295,6.7,10.2,37,0.00,,---,0.00,VWS V14.01,2013-03-26 23:09:00,
2013-03-26 19:14:00,55.2,29.4,30.14,WNW,285,8.0,12.1,37,0.00,,---,0.00,VWS V14.01,2013-03-26 23:14:00,
2013-03-26 19:19:00,54.7,29.5,30.14,WNW,287,8.9,11.9,38,0.00,,---,0.00,VWS V14.01,2013-03-26 23:19:00,
2013-03-26 19:24:00,54.7,30.1,30.14,West,266,7.5,7.8,39,0.00,,---,0.00,VWS V14.01,2013-03-26 23:24:00,
2013-03-26 19:29:00,54.8,30.3,30.14,West,267,4.5,8.8,39,0.00,,---,0.00,VWS V14.01,2013-03-26 23:29:00,
2013-03-26 19:34:00,54.2,30.1,30.15,WNW,290,5.4,10.5,40,0.00,,---,0.00,VWS V14.01,2013-03-26 23:34:00,
2013-03-26 19:39:00,53.7,30.2,30.15,West,270,4.2,10.1,40,0.00,,---,0.00,VWS V14.01,2013-03-26 23:39:00,
2013-03-26 19:44:00,53.7,30.8,30.15,West,263,5.5,7.5,41,0.00,,---,0.00,VWS V14.01,2013-03-26 23:44:00,
2013-03-26 19:49:00,53.2,30.8,30.16,WSW,243,3.4,7.6,42,0.00,,---,0.00,VWS V14.01,2013-03-26 23:49:00,
2013-03-26 19:54:00,53.4,31.3,30.16,WSW,250,8.5,11.2,43,0.00,,---,0.00,VWS V14.01,2013-03-26 23:54:00,
2013-03-26 19:59:00,53.5,31.5,30.16,West,274,6.3,9.2,43,0.00,,---,0.00,VWS V14.01,2013-03-26 23:59:00,
2013-03-26 20:04:00,52.7,31.1,30.17,West,259,8.9,10.6,43,0.00,,---,0.00,VWS V14.01,2013-03-27 00:04:00,
2013-03-26 20:09:00,52.4,31.0,30.17,West,267,3.6,4.8,44,0.00,,---,0.00,VWS V14.01,2013-03-27 00:09:00,
2013-03-26 20:14:00,52.4,31.1,30.17,WNW,294,6.0,6.3,44,0.00,,---,0.00,VWS V14.01,2013-03-27 00:14:00,
2013-03-26 20:19:00,52.6,31.5,30.17,West,281,6.4,8.9,44,0.00,,---,0.00,VWS V14.01,2013-03-27 00:19:00,
2013-03-26 20:24:00,52.2,31.4,30.18,WNW,302,8.1,9.7,45,0.00,,---,0.00,VWS V14.01,2013-03-27 00:24:00,
2013-03-26 20:29:00,51.4,31.2,30.18,WSW,256,3.1,6.7,46,0.00,,---,0.00,VWS V14.01,2013-03-27 00:29:00,
2013-03-26 20:34:00,52.1,32.2,30.18,West,264,8.0,11.3,46,0.00,,---,0.00,VWS V14.01,2013-03-27 00:34:00,
2013-03-26 20:39:00,51.8,32.3,30.18,WNW,287,0.6,4.8,47,0.00,,---,0.00,VWS V14.01,2013-03-27 00:39:00,
2013-03-26 20:44:00,51.2,31.9,30.19,West,263,7.0,10.2,48,0.00,,---,0.00,VWS V14.01,2013-03-27 00:44:00,
2013-03-26 20:49:00,51.9,33.0,30.19,NNW,342,1.3,4.5,48,0.00,,---,0.00,VWS V14.01,2013-03-27 00:49:00,
2013-03-26 20:54:00,51.0,32.5,30.19,West,281,3.5,10.1,49,0.00,,---,0.00,VWS V14.01,2013-03-27 00:54:00,
2013-03-26 20:59:00,51.6,33.2,30.19,West,260,8.3,9.4,49,0.00,,---,0.00,VWS V14.01,2013-03-27 00:59:00,
2013-03-26 21:04:00,51.2,33.2,30.19,West,277,5.4,12.4,50,0.00,,---,0.00,VWS V14.01,2013-03-27 01:04:00,
2013-03-26 21:09:00,50.9,33.3,30.19,WNW,294,4.7,12.2,51,0.00,,---,0.00,VWS V14.01,2013-03-27 01:09:00,
2013-03-26 21:14:00,50.6,33.3,30.20,West,270,1.5,6.9,51,0.00,,---,0.00,VWS V14.01,2013-03-27 01:14:00,
2013-03-26 21:19:00,50.7,33.5,30.20,WSW,255,5.7,10.4,52,0.00,,---,0.00,VWS V14.01,2013-03-27 01:19:00,
2013-03-26 21:24:00,50.2,33.4,30.20,West,260,5.3,12.9,52,0.00,,---,0.00,VWS V14.01,2013-03-27 01:24:00,
2013-03-26 21:29:00,50.0,33.4,30.20,West,263,3.4,8.4,53,0.00,,---,0.00,VWS V14.01,2013-03-27 01:29:00,
2013-03-26 21:34:00,50.3,33.9,30.21,WNW,288,5.2,5.6,53,0.00,,---,0.00,VWS V14.01,2013-03-27 01:34:00,
2013-03-26 21:39:00,50.1,34.2,30.21,West,271,8.4,8.4,54,0.00,,---,0.00,VWS V14.01,2013-03-27 01:39:00,
2013-03-26 21:44:00,49.4,33.5,30.21,WSW,253,4.4,9.6,54,0.00,,---,0.00,VWS V14.01,2013-03-27 01:44:00,
2013-03-26 21:49:00,49.9,34.2,30.22,West,277,3.0,6.0,54,0.00,,---,0.00,VWS V14.01,2013-03-27 01:49:00,
2013-03-26 21:54:00,50.1,34.5,30.22,WSW,249,4.4,5.3,55,0.00,,---,0.00,VWS V14.01,2013-03-27 01:54:00,
2013-03-26 21:59:00,49.2,33.8,30.22,NW,307,4.7,6.1,55,0.00,,---,0.00,VWS V14.01,2013-03-27 01:59:00,
2013-03-26 22:04:00,50.0,34.6,30.22,West,269,2.7,4.1,55,0.00,,---,0.00,VWS V14.01,2013-03-27 02:04:00,
2013-03-26 22:09:00,48.9,33.8,30.22,WSW,249,3.5,6.1,56,0.00,,---,0.00,VWS V14.01,2013-03-27 02:09:00,
2013-03-26 22:14:00,48.8,33.9,30.23,West,260,1.7,4.6,56,0.00,,---,0.00,VWS V14.01,2013-03-27 02:14:00,
2013-03-26 22:19:00,49.5,34.7,30.23,West,277,4.9,8.2,57,0.00,,---,0.00,VWS V14.01,2013-03-27 02:19:00,
2013-03-26 22:24:00,49.4,34.6,30.23,WNW,285,3.0,8.3,56,0.00,,---,0.00,VWS V14.01,2013-03-27 02:24:00,
2013-03-26 22:29:00,48.5,33.8,30.23,West,276,4.9,7.3,56,0.00,,---,0.00,VWS V14.01,2013-03-27 02:29:00,
2013-03-26 22:34:00,49.4,34.7,30.23,WSW,255,10.7,11.4,57,0.00,,---,0.00,VWS V14.01,2013-03-27 02:34:00,
2013-03-26 22:39:00,49.1,34.7,30.23,WNW,300,6.6,6.6,57,0.00,,---,0.00,VWS V14.01,2013-03-27 02:39:00,
2013-03-26 22:44:00,49.0,34.8,30.23,WSW,253,1.9,6.8,58,0.00,,---,0.00,VWS V14.01,2013-03-27 02:44:00,
2013-03-26 22:49:00,49.2,35.2,30.23,West,271,4.8,6.6,58,0.00,,---,0.00,VWS V14.01,2013-03-27 02:49:00,
2013-03-26 22:54:00,49.0,35.1,30.23,West,276,1.2,6.1,58,0.00,,---,0.00,VWS V14.01,2013-03-27 02:54:00,
2013-03-26 22:59:00,48.8,35.2,30.23,WNW,301,1.9,6.2,59,0.00,,---,0.00,VWS V14.01,2013-03-27 02:59:00,
2013-03-26 23:04:00,48.6,35.0,30.24,NW,312,0.8,5.0,59,0.00,,---,0.00,VWS V14.01,2013-03-27 03:04:00,
2013-03-26 23:09:00,48.9,35.6,30.24,NNW,328,1.8,7.3,60,0.00,,---,0.00,VWS V14.01,2013-03-27 03:09:00,
2013-03-26 23:14:00,48.6,35.4,30.24,NNW,342,1.9,5.8,60,0.00,,---,0.00,VWS V14.01,2013-03-27 03:14:00,
2013-03-26 23:19:00,48.7,35.7,30.24,WNW,284,4.0,6.6,61,0.00,,---,0.00,VWS V14.01,2013-03-27 03:19:00,
2013-03-26 23:24:00,48.1,35.2,30.24,West,277,6.0,8.1,61,0.00,,---,0.00,VWS V14.01,2013-03-27 03:24:00,
2013-03-26 23:29:00,47.4,34.7,30.24,NW,304,4.7,5.9,61,0.00,,---,0.00,VWS V14.01,2013-03-27 03:29:00,
2013-03-26 23:34:00,48.4,35.9,30.24,North,352,4.4,4.4,62,0.00,,---,0.00,VWS V14.01,2013-03-27 03:34:00,
2013-03-26 23:39:00,48.1,35.8,30.24,WNW,290,6.0,10.9,62,0.00,,---,0.00,VWS V14.01,2013-03-27 03:39:00,
2013-03-26 23:44:00,48.2,36.1,30.24,WNW,302,5.9,6.0,63,0.00,,---,0.00,VWS V14.01,2013-03-27 03:44:00,
2013-03-26 23:49:00,47.6,35.6,30.24,NW,326,3.7,5.0,63,0.00,,---,0.00,VWS V14.01,2013-03-27 03:49:00,
2013-03-26 23:54:00,47.7,35.8,30.24,WNW,284,3.5,4.2,63,0.00,,---,0.00,VWS V14.01,2013-03-27 03:54:00,